�N����,����,�~����,�C��,���x,�C��,����,���ϕ���,�ő�u�ԕ���,�ő厞����,���˗�,�I�_���x,�n�����x,�ő啗���N��,DTYPE
"16/05/14","00:10",0.0,16.3,80.9,1017.1,312.9,1.1,2.0,327.9,0.00,13.1,18.9,"00:06:24",1
"16/05/14","00:20",0.0,16.0,82.0,1016.8,320.9,1.1,2.0,336.9,0.00,13.0,18.9,"00:16:48",1
"16/05/14","00:30",0.0,15.8,82.8,1016.6,329.9,1.0,1.8,327.8,0.00,12.9,18.6,"00:28:16",1
"16/05/14","00:40",0.0,15.6,83.5,1016.8,310.5,0.6,1.9,352.0,0.00,12.9,18.6,"00:37:04",1
"16/05/14","00:50",0.0,15.7,83.7,1016.8,9.5,0.7,1.4,353.1,0.00,13.0,18.7,"00:44:24",1
"16/05/14","01:00",0.0,15.6,83.3,1016.6,332.3,1.5,2.0,335.6,0.00,12.8,18.6,"00:57:28",1
"16/05/14","01:10",0.0,15.2,85.1,1016.8,319.8,1.5,2.2,343.8,0.00,12.8,18.4,"01:02:16",1
"16/05/14","01:20",0.0,15.6,85.8,1017.1,326.8,1.7,3.1,337.0,0.00,13.3,18.6,"01:10:02",1
"16/05/14","01:30",0.0,15.9,84.9,1017.1,318.9,1.3,2.7,339.8,0.00,13.4,18.5,"01:29:36",1
"16/05/14","01:40",0.0,15.9,84.1,1016.8,340.4,1.1,2.2,339.7,0.00,13.3,18.3,"01:34:56",1
"16/05/14","01:50",0.0,15.5,83.9,1016.8,288.6,0.3,1.1,299.9,0.00,12.8,18.4,"01:42:32",1
"16/05/14","02:00",0.0,15.1,85.3,1016.8,304.7,1.1,1.8,314.5,0.00,12.7,18.2,"01:58:00",1
"16/05/14","02:10",0.0,14.8,86.9,1016.6,300.8,1.6,2.0,305.4,0.00,12.7,18.3,"02:02:32",1
"16/05/14","02:20",0.0,15.1,86.0,1016.4,313.1,1.8,2.5,313.7,0.00,12.8,18.4,"02:11:28",1
"16/05/14","02:30",0.0,15.4,85.0,1016.6,326.5,1.7,3.3,339.8,0.00,12.9,18.1,"02:28:16",1
"16/05/14","02:40",0.0,15.5,84.6,1016.8,324.4,1.7,3.9,341.7,0.00,13.0,18.2,"02:35:12",1
"16/05/14","02:50",0.0,15.6,84.4,1016.4,329.1,1.8,4.9,349.8,0.00,13.0,18.1,"02:49:52",1
"16/05/14","03:00",0.0,15.5,84.4,1016.8,333.2,1.8,3.2,337.3,0.00,12.9,18.0,"02:51:20",1
"16/05/14","03:10",0.0,15.5,84.7,1017.1,323.4,2.0,3.5,316.1,0.00,13.0,18.0,"03:02:48",1
"16/05/14","03:20",0.0,15.5,84.7,1017.3,324.9,2.0,3.2,347.7,0.00,13.0,17.9,"03:19:04",1
"16/05/14","03:30",0.0,15.3,84.8,1017.3,326.4,1.8,4.0,347.2,0.00,12.8,17.8,"03:27:52",1
"16/05/14","03:40",0.0,15.1,85.4,1017.3,320.4,1.6,2.8,348.8,0.00,12.7,17.9,"03:30:56",1
"16/05/14","03:50",0.0,15.0,85.5,1017.1,324.6,1.6,4.0,355.0,0.00,12.6,17.8,"03:46:48",1
"16/05/14","04:00",0.0,15.0,85.5,1017.1,322.4,1.6,2.2,325.8,0.00,12.6,17.8,"03:50:24",1
"16/05/14","04:10",0.0,15.0,85.4,1017.1,327.5,2.0,4.3,348.6,0.00,12.6,17.7,"04:02:24",1
"16/05/14","04:20",0.0,14.9,84.7,1017.3,326.6,1.8,3.2,335.0,0.00,12.4,17.8,"04:13:44",1
"16/05/14","04:30",0.0,14.9,85.3,1017.3,314.7,1.8,2.7,311.1,0.00,12.5,17.7,"04:26:24",1
"16/05/14","04:40",0.0,15.0,84.4,1017.1,305.3,1.8,2.6,314.6,0.00,12.4,17.6,"04:35:20",1
"16/05/14","04:50",0.0,15.1,83.5,1017.8,300.4,1.5,2.1,321.5,0.00,12.4,17.6,"04:42:48",1
"16/05/14","05:00",0.0,15.2,83.0,1018.0,300.5,1.3,2.4,322.0,0.00,12.4,17.6,"04:50:24",1
"16/05/14","05:10",0.0,15.3,83.2,1017.5,295.8,1.1,2.2,320.3,0.00,12.5,17.8,"05:04:08",1
"16/05/14","05:20",0.0,15.6,82.2,1017.8,301.9,1.7,2.9,338.0,0.00,12.6,17.7,"05:10:02",1
"16/05/14","05:30",0.0,15.7,81.8,1017.8,320.2,2.1,2.9,310.3,0.00,12.6,17.5,"05:24:08",1
"16/05/14","05:40",0.0,15.7,82.6,1017.8,322.6,1.6,2.8,347.8,0.01,12.8,17.5,"05:34:08",1
"16/05/14","05:50",0.0,15.6,82.8,1018.0,317.3,1.6,2.4,331.2,0.02,12.7,17.6,"05:42:32",1
"16/05/14","06:00",0.0,15.9,82.7,1017.8,314.1,1.6,2.2,318.4,0.03,13.0,17.7,"05:51:44",1
"16/05/14","06:10",0.0,16.3,82.4,1018.2,319.9,1.2,1.9,340.6,0.04,13.3,17.4,"06:09:04",1
"16/05/14","06:20",0.0,16.7,81.0,1018.5,317.7,1.0,1.8,321.0,0.06,13.5,17.6,"06:17:52",1
"16/05/14","06:30",0.0,17.2,79.5,1018.5,312.9,0.8,1.8,349.3,0.07,13.7,17.5,"06:23:20",1
"16/05/14","06:40",0.0,17.5,77.9,1018.7,302.3,0.5,1.4,339.4,0.09,13.6,17.6,"06:32:32",1
"16/05/14","06:50",0.0,17.9,76.6,1019.0,300.3,0.7,1.7,342.0,0.09,13.8,17.5,"06:49:44",1
"16/05/14","07:00",0.0,18.2,76.6,1019.0,307.9,0.8,1.9,315.3,0.11,14.1,17.6,"06:54:00",1
"16/05/14","07:10",0.0,18.1,75.9,1018.5,329.0,1.5,3.6,17.1,0.10,13.8,17.7,"07:05:20",1
"16/05/14","07:20",0.0,18.7,73.8,1019.0,327.8,1.2,3.5,349.2,0.11,14.0,17.7,"07:11:12",1
"16/05/14","07:30",0.0,18.9,73.0,1018.7,320.5,1.7,4.5,333.4,0.13,14.0,17.4,"07:20:02",1
"16/05/14","07:40",0.0,19.5,70.9,1018.7,340.9,2.2,4.1,329.8,0.21,14.1,17.6,"07:32:24",1
"16/05/14","07:50",0.0,19.7,68.4,1018.7,328.4,2.3,5.1,346.9,0.24,13.8,17.8,"07:46:40",1
"16/05/14","08:00",0.0,20.0,68.6,1018.7,332.7,2.3,6.2,342.9,0.27,14.1,18.0,"07:52:40",1
"16/05/14","08:10",0.0,20.4,66.2,1018.7,343.0,1.8,4.0,354.6,0.30,13.9,17.8,"08:04:56",1
"16/05/14","08:20",0.0,20.6,62.0,1018.2,356.8,1.8,4.0,349.8,0.31,13.1,17.9,"08:13:12",1
"16/05/14","08:30",0.0,21.1,63.6,1018.7,16.7,1.6,3.7,19.3,0.35,14.0,18.0,"08:22:08",1
"16/05/14","08:40",0.0,21.3,62.3,1018.0,340.4,1.5,2.8,357.8,0.38,13.8,18.1,"08:35:20",1
"16/05/14","08:50",0.0,21.9,60.0,1017.8,348.2,1.2,2.8,358.4,0.40,13.8,18.2,"08:42:16",1
"16/05/14","09:00",0.0,22.2,59.3,1017.3,345.1,0.8,2.9,31.4,0.40,13.9,18.3,"08:53:20",1
"16/05/14","09:10",0.0,22.5,59.2,1017.1,190.9,1.0,2.1,124.5,0.45,14.2,18.2,"09:05:20",1
"16/05/14","09:20",0.0,22.7,58.1,1017.1,287.1,0.8,1.9,347.0,0.43,14.1,18.5,"09:11:28",1
"16/05/14","09:30",0.0,22.8,55.2,1016.8,196.4,1.5,3.5,197.8,0.45,13.4,18.7,"09:21:20",1
"16/05/14","09:40",0.0,23.3,54.6,1017.1,48.4,2.0,3.4,0.9,0.43,13.7,19.0,"09:35:28",1
"16/05/14","09:50",0.0,22.9,56.7,1017.1,118.8,1.5,3.4,111.8,0.39,13.9,18.8,"09:42:00",1
"16/05/14","10:00",0.0,23.4,55.2,1017.3,162.7,1.6,3.5,146.1,0.44,13.9,19.0,"09:53:04",1
"16/05/14","10:10",0.0,23.6,55.4,1017.1,185.8,1.8,3.5,194.8,0.49,14.2,19.4,"10:02:56",1
"16/05/14","10:20",0.0,23.6,54.9,1016.6,169.4,1.6,4.0,113.6,0.54,14.1,19.4,"10:18:08",1
"16/05/14","10:30",0.0,24.1,52.6,1016.6,215.7,2.1,4.1,205.3,0.54,13.9,19.4,"10:21:52",1
"16/05/14","10:40",0.0,24.7,50.8,1016.4,224.8,1.2,3.5,148.8,0.57,13.9,19.7,"10:39:44",1
"16/05/14","10:50",0.0,24.3,53.4,1016.4,190.2,3.0,6.0,201.3,0.59,14.3,20.0,"10:46:24",1
"16/05/14","11:00",0.0,24.7,51.1,1015.9,151.7,2.1,4.1,172.5,0.59,14.0,20.4,"10:59:20",1
"16/05/14","11:10",0.0,24.8,50.8,1015.6,150.4,2.3,4.0,178.0,0.56,14.0,20.3,"11:05:52",1
"16/05/14","11:20",0.0,24.9,50.5,1015.4,160.0,2.3,4.5,195.1,0.59,14.0,20.5,"11:14:24",1
"16/05/14","11:30",0.0,25.1,49.3,1015.6,174.6,2.2,3.9,175.9,0.61,13.8,20.7,"11:25:20",1
"16/05/14","11:40",0.0,25.0,48.2,1015.4,252.0,1.7,4.0,169.8,0.61,13.3,20.8,"11:33:12",1
"16/05/14","11:50",0.0,25.5,46.0,1015.4,196.9,1.6,4.2,199.3,0.62,13.1,21.0,"11:43:44",1
"16/05/14","12:00",0.0,25.5,46.0,1014.7,204.4,2.6,5.1,184.2,0.63,13.1,21.0,"11:58:48",1
"16/05/14","12:10",0.0,26.2,48.3,1014.5,231.0,1.2,2.9,229.0,0.62,14.5,21.1,"12:05:28",1
"16/05/14","12:20",0.0,26.6,45.3,1014.7,165.4,1.7,3.1,102.3,0.60,13.8,21.4,"12:11:36",1
"16/05/14","12:30",0.0,26.4,43.6,1014.7,149.1,1.8,4.4,158.9,0.61,13.1,21.7,"12:27:36",1
"16/05/14","12:40",0.0,26.9,44.1,1014.5,193.7,2.1,5.5,137.1,0.59,13.7,21.7,"12:39:44",1
"16/05/14","12:50",0.0,26.9,41.6,1014.5,165.8,2.5,5.4,215.1,0.59,12.8,21.9,"12:49:36",1
"16/05/14","13:00",0.0,27.0,44.1,1014.0,170.0,1.8,4.9,215.6,0.59,13.8,21.9,"12:50:40",1
"16/05/14","13:10",0.0,26.8,43.4,1014.0,171.3,2.1,4.7,179.4,0.59,13.4,22.0,"13:05:04",1
"16/05/14","13:20",0.0,27.1,41.9,1014.0,164.3,2.2,4.0,188.1,0.58,13.1,22.2,"13:13:52",1
"16/05/14","13:30",0.0,27.3,41.5,1014.0,151.3,1.0,3.4,207.9,0.54,13.1,22.2,"13:20:02",1
"16/05/14","13:40",0.0,27.2,43.4,1014.2,156.1,2.2,6.7,229.6,0.54,13.7,22.2,"13:30:24",1
"16/05/14","13:50",0.0,27.1,41.8,1013.8,133.0,1.8,4.0,131.8,0.54,13.1,22.2,"13:44:40",1
"16/05/14","14:00",0.0,27.8,42.2,1014.2,206.3,1.1,3.2,176.5,0.53,13.8,22.2,"13:53:04",1
"16/05/14","14:10",0.0,27.7,41.4,1013.5,174.7,1.2,2.5,174.4,0.50,13.5,22.4,"14:07:44",1
"16/05/14","14:20",0.0,27.2,40.5,1013.3,210.1,1.7,3.6,168.1,0.47,12.7,22.5,"14:14:16",1
"16/05/14","14:30",0.0,27.6,41.8,1013.5,156.5,2.0,4.0,179.5,0.42,13.5,22.7,"14:29:20",1
"16/05/14","14:40",0.0,27.4,41.1,1013.0,155.8,2.7,7.9,205.6,0.42,13.1,22.8,"14:37:28",1
"16/05/14","14:50",0.0,27.3,38.3,1013.0,151.6,1.8,3.9,155.8,0.41,11.9,22.6,"14:44:24",1
"16/05/14","15:00",0.0,27.4,40.9,1012.8,168.7,2.3,4.3,191.1,0.40,13.0,22.8,"14:54:00",1
"16/05/14","15:10",0.0,27.3,37.4,1012.6,167.0,1.1,3.6,132.3,0.39,11.5,22.7,"15:06:56",1
"16/05/14","15:20",0.0,27.7,37.3,1012.6,190.5,1.2,4.5,205.4,0.38,11.9,23.0,"15:13:12",1
"16/05/14","15:30",0.0,27.7,41.8,1012.3,147.8,2.0,4.8,159.6,0.37,13.6,23.0,"15:26:24",1
"16/05/14","15:40",0.0,27.9,36.7,1012.3,121.0,1.5,2.9,147.8,0.34,11.8,22.8,"15:30:40",1
"16/05/14","15:50",0.0,27.9,37.7,1012.6,143.0,1.3,3.2,169.4,0.30,12.2,23.0,"15:40:40",1
"16/05/14","16:00",0.0,27.8,34.1,1013.0,137.7,1.8,3.2,165.5,0.29,10.6,23.0,"15:57:36",1
"16/05/14","16:10",0.0,27.5,37.5,1012.6,160.7,1.2,2.5,111.4,0.25,11.8,22.8,"16:06:40",1
"16/05/14","16:20",0.0,27.6,38.1,1012.6,5.6,1.1,2.9,347.3,0.23,12.1,22.8,"16:15:44",1
"16/05/14","16:30",0.0,27.5,32.9,1012.1,15.2,1.2,2.4,353.3,0.21,9.8,22.7,"16:28:00",1
"16/05/14","16:40",0.0,27.2,33.0,1011.9,88.0,1.1,2.6,122.7,0.18,9.6,22.8,"16:32:40",1
"16/05/14","16:50",0.0,27.1,33.8,1012.1,350.4,1.0,2.8,353.6,0.16,9.9,22.7,"16:48:48",1
"16/05/14","17:00",0.0,26.9,37.3,1011.6,99.8,0.6,1.6,351.4,0.08,11.2,22.7,"16:50:08",1
"16/05/14","17:10",0.0,26.8,37.1,1012.3,24.9,0.7,1.4,18.9,0.07,11.0,22.6,"17:01:36",1
"16/05/14","17:20",0.0,26.6,40.0,1012.3,50.8,0.5,1.7,328.0,0.03,11.9,22.5,"17:13:52",1
"16/05/14","17:30",0.0,26.4,40.0,1012.6,97.0,0.8,1.7,125.0,0.03,11.8,22.5,"17:27:44",1
"16/05/14","17:40",0.0,26.2,40.0,1012.8,60.9,0.8,1.9,43.5,0.02,11.6,22.2,"17:38:40",1
"16/05/14","17:50",0.0,26.1,42.1,1012.8,100.3,1.3,3.7,98.7,0.02,12.3,22.2,"17:47:20",1
"16/05/14","18:00",0.0,25.6,45.0,1012.6,113.7,1.7,3.4,117.9,0.01,12.8,22.1,"17:53:36",1
"16/05/14","18:10",0.0,25.3,46.8,1013.3,116.9,1.3,2.6,94.3,0.01,13.2,22.2,"18:07:36",1
"16/05/14","18:20",0.0,25.2,47.9,1013.3,111.8,1.5,3.5,120.5,0.01,13.4,22.0,"18:15:28",1
"16/05/14","18:30",0.0,24.8,48.5,1013.5,110.6,1.1,3.4,109.6,0.00,13.3,21.9,"18:21:04",1
"16/05/14","18:40",0.0,24.5,48.2,1013.8,92.2,1.2,3.3,112.2,0.00,12.9,21.7,"18:39:52",1
"16/05/14","18:50",0.0,24.1,49.7,1014.0,105.6,0.8,2.5,52.5,0.00,13.0,21.8,"18:49:36",1
"16/05/14","19:00",0.0,23.8,50.2,1014.5,9.9,1.1,2.6,129.0,0.00,12.9,21.6,"18:52:48",1
"16/05/14","19:10",0.0,23.3,52.7,1014.7,343.3,1.0,2.0,341.6,0.00,13.1,21.5,"19:09:08",1
"16/05/14","19:20",0.0,22.4,56.2,1014.9,336.5,1.2,1.9,0.3,0.00,13.3,21.3,"19:17:28",1
"16/05/14","19:30",0.0,21.7,59.0,1014.9,333.1,1.3,2.2,348.7,0.00,13.4,21.3,"19:23:52",1
"16/05/14","19:40",0.0,21.1,61.5,1014.9,326.1,1.3,2.4,329.9,0.00,13.5,21.4,"19:31:52",1
"16/05/14","19:50",0.0,20.7,63.3,1015.9,332.5,1.3,2.4,340.0,0.00,13.5,21.2,"19:41:36",1
"16/05/14","20:00",0.0,20.2,64.7,1016.1,295.8,0.8,1.4,309.8,0.00,13.4,21.1,"19:50:24",1
"16/05/14","20:10",0.0,19.8,66.0,1015.6,306.2,1.0,1.3,344.9,0.00,13.3,20.9,"20:04:56",1
"16/05/14","20:20",0.0,19.8,66.5,1015.9,287.3,1.0,1.2,278.2,0.00,13.4,21.0,"20:14:00",1
"16/05/14","20:30",0.0,19.6,67.4,1016.1,291.9,1.0,1.2,298.7,0.00,13.4,20.7,"20:24:48",1
"16/05/14","20:40",0.0,19.5,68.3,1015.9,294.8,1.1,1.8,314.0,0.00,13.6,20.8,"20:39:44",1
"16/05/14","20:50",0.0,19.3,69.4,1016.1,306.8,1.1,1.4,306.5,0.00,13.6,20.7,"20:40:08",1
"16/05/14","21:00",0.0,18.9,70.8,1016.1,298.1,0.8,1.1,307.7,0.00,13.5,20.4,"20:50:08",1
"16/05/14","21:10",0.0,18.5,72.9,1016.1,280.4,0.7,1.3,304.7,0.00,13.6,20.4,"21:09:52",1
"16/05/14","21:20",0.0,18.2,75.2,1016.1,331.7,1.7,2.7,342.9,0.00,13.8,20.3,"21:13:28",1
"16/05/14","21:30",0.0,18.0,76.9,1016.4,315.6,1.3,1.8,332.9,0.00,13.9,20.2,"21:20:08",1
"16/05/14","21:40",0.0,17.8,77.1,1016.8,303.0,0.6,1.1,322.9,0.00,13.8,20.2,"21:32:00",1
"16/05/14","21:50",0.0,17.7,77.2,1016.6,291.2,0.7,1.2,295.7,0.00,13.7,19.9,"21:48:56",1
"16/05/14","22:00",0.0,17.7,76.9,1016.4,312.9,1.2,1.6,332.7,0.00,13.6,20.0,"21:57:44",1
"16/05/14","22:10",0.0,17.8,77.8,1016.4,316.2,1.2,2.0,333.4,0.00,13.9,20.1,"22:07:52",1
"16/05/14","22:20",0.0,17.5,78.0,1016.4,313.4,1.1,1.7,330.3,0.00,13.7,20.0,"22:15:04",1
"16/05/14","22:30",0.0,17.3,78.6,1016.6,305.7,0.7,1.2,321.4,0.00,13.6,19.7,"22:29:20",1
"16/05/14","22:40",0.0,17.1,79.1,1016.6,305.6,1.0,1.4,321.7,0.00,13.5,19.8,"22:36:56",1
"16/05/14","22:50",0.0,17.1,79.8,1016.6,312.3,0.8,1.2,301.1,0.00,13.6,19.7,"22:40:08",1
"16/05/14","23:00",0.0,16.9,80.6,1016.4,326.3,1.1,1.4,345.8,0.00,13.6,19.8,"22:51:36",1
"16/05/14","23:10",0.0,16.7,81.6,1016.6,314.9,1.0,1.2,317.5,0.00,13.6,19.2,"23:08:56",1
"16/05/14","23:20",0.0,16.6,82.5,1016.6,315.5,0.8,1.3,322.0,0.00,13.7,19.3,"23:12:08",1
"16/05/14","23:30",0.0,16.5,83.2,1016.6,300.4,0.8,1.1,280.0,0.00,13.7,19.4,"23:25:20",1
"16/05/14","23:40",0.0,16.6,83.1,1016.6,303.8,1.0,1.7,320.0,0.00,13.8,19.4,"23:35:20",1
"16/05/14","23:50",0.0,16.6,82.6,1016.8,298.4,0.8,1.1,295.0,0.00,13.7,19.4,"23:48:00",1
"16/05/14","24:00",0.0,16.7,82.8,1016.8,316.2,0.8,1.1,318.7,0.00,13.8,19.2,"23:50:56",1
